Location: Eaton Estates
(41.3089°N, 82.0057°W)
Time: 07:04:29
(UTC+00:00)

ORBCOMM FM 118 - Visible Passes

Search period start: 06 December 2023 00:00
Search period end: 16 December 2023 00:00
Orbit: 705 x 706 km, 47.0° (Epoch: 05 December)

Date Brightness Start Highest point End Pass type
(mag) Time Alt. Az. Time Alt. Az. Time Alt. Az.
06 Dec ? 10:13:24 49° NNE 10:13:24 49° NNE 10:18:09 10° E visible
06 Dec ? 11:52:17 11° WNW 11:57:08 70° SSW 12:02:08 10° SE visible
07 Dec ? 09:17:46 20° ENE 09:17:46 20° ENE 09:19:28 10° ENE visible
07 Dec ? 10:56:39 36° WNW 10:58:44 81° NNE 11:03:47 10° ESE visible
08 Dec ? 10:01:04 52° ENE 10:01:04 52° ENE 10:05:14 10° E visible
08 Dec ? 11:39:57 15° WNW 11:43:52 46° SW 11:48:41 10° SE visible
09 Dec ? 09:05:30 16° E 09:05:30 16° E 09:06:33 10° E visible
09 Dec ? 10:44:24 52° W 10:45:34 74° SSW 10:50:35 10° SE visible
10 Dec ? 09:48:52 41° ESE 09:48:52 41° ESE 09:52:12 10° ESE visible
10 Dec ? 11:27:46 18° W 11:30:31 30° SW 11:34:52 10° SSE visible
11 Dec ? 08:53:24 11° E 08:53:24 11° E 08:53:37 10° E visible
11 Dec ? 10:32:19 49° SW 10:32:19 49° SW 10:37:09 10° SE visible
12 Dec ? 09:36:53 25° SE 09:36:53 25° SE 09:39:00 10° SE visible
12 Dec ? 11:15:47 17° WSW 11:17:03 19° SW 11:20:33 10° S visible
13 Dec ? 10:20:26 27° S 10:20:26 27° S 10:23:23 10° SSE visible
14 Dec ? 09:25:07 13° SE 09:25:07 13° SE 09:25:35 10° SE visible
14 Dec ? 11:04:02 11° SW 11:04:02 11° SW 11:04:50 10° SW visible
15 Dec ? 10:08:46 11° S 10:08:46 11° S 10:09:07 10° S visible
